GW0458 Weather Reports


time (UTC)temp
F
wind
direction
speed
knots
gust
knots
rain 1hr
in
rain 24hr
in
rain mn
in
humidity
%
barometer
mb
20240614124054 48 174 0.0 0.0 0.00 0.00 0.00 82 1028.8
20240614121053 48 177 0.9 0.9 0.00 0.00 0.00 83 1028.3
20240614114053 48 170 0.9 0.9 0.00 0.00 0.00 82 1028.4
20240614111052 48 166 0.9 0.9 0.00 0.00 0.00 81 1028.5
20240614104051 48 170 0.9 0.9 0.00 0.00 0.00 84 1028.1
20240614101050 49 172 0.0 0.0 0.00 0.00 0.00 80 1028.1
20240614094049 50 174 0.0 0.9 0.00 0.00 0.00 78 1028.1
20240614091049 49 170 0.0 0.0 0.00 0.00 0.00 82 1028.0
20240614084049 51 154 0.9 1.7 0.00 0.00 0.00 80 1027.5
20240614081047 51 173 0.0 0.0 0.00 0.00 0.00 77 1027.4
20240614074046 53 174 0.0 0.0 0.00 0.00 0.00 76 1027.2
20240614071045 55 173 0.0 0.0 0.00 0.00 0.00 70 1026.9
20240614064043 55 171 0.0 0.0 0.00 0.00 0.00 71 1026.7
20240614061041 55 171 0.0 0.0 0.00 0.00 0.00 68 1026.3
20240614054041 57 173 0.0 0.0 0.00 0.00 0.00 66 1025.8
20240614051041 59 174 0.0 0.0 0.00 0.00 0.00 65 1025.5
20240614044041 60 170 0.0 0.0 0.00 0.00 0.00 62 1025.2
20240614041041 62 174 0.0 0.0 0.00 0.00 0.00 62 1024.8
20240614034040 64 170 0.0 0.0 0.00 0.00 0.00 63 1024.6
20240614031040 65 173 0.0 0.0 0.00 0.00 0.00 62 1024.8
20240614024038 65 173 0.0 0.0 0.00 0.00 0.00 60 1024.8
20240614021037 67 177 0.0 0.0 0.00 0.00 0.00 52 1024.9
20240614014035 68 164 0.0 0.0 0.00 0.00 0.00 56 1024.6
20240614011034 68 185 0.9 0.9 0.00 0.00 0.00 56 1024.6
20240614004034 68 178 0.0 0.0 0.00 0.00 0.00 50 1024.7
20240614001033 68 181 0.0 0.0 0.00 0.00 0.00 48 1024.5
20240613234031 69 174 0.0 0.0 0.00 0.00 0.00 40 1024.8
20240613231031 68 177 0.0 0.0 0.00 0.00 0.00 43 1025.0
20240613224031 69 218 0.9 0.9 0.00 0.00 0.00 43 1024.7
20240613221030 68 176 0.9 0.9 0.00 0.00 0.00 47 1025.0
20240613214028 68 175 0.0 0.0 0.00 0.00 0.00 50 1025.0
20240613211027 67 192 0.9 0.9 0.00 0.00 0.00 52 1025.6
20240613204027 67 195 0.9 0.9 0.00 0.00 0.00 52 1025.7
20240613201028 68 173 0.0 0.0 0.00 0.00 0.00 54 1025.8
20240613194026 66 215 0.9 0.9 0.00 0.00 0.00 56 1026.1
20240613191025 67 275 2.6 2.6 0.00 0.00 0.00 55 1026.3
20240613184024 67 178 1.7 1.7 0.00 0.00 0.00 57 1026.3
20240613181023 66 189 0.9 0.9 0.00 0.00 0.00 60 1026.5
20240613174022 63 165 0.0 0.0 0.00 0.00 0.00 64 1026.8
20240613171023 60 178 0.9 0.9 0.00 0.00 0.00 67 1027.0
20240613164022 62 189 0.9 0.9 0.00 0.00 0.00 65 1027.0
20240613161021 59 173 0.0 0.0 0.00 0.00 0.00 70 1027.3
20240613154021 60 168 0.9 0.9 0.00 0.00 0.00 66 1027.2
20240613151019 58 177 0.0 0.9 0.00 0.00 0.00 70 1027.5
20240613144018 55 171 0.0 0.0 0.00 0.00 0.00 74 1027.4
20240613141018 52 169 0.0 0.0 0.00 0.00 0.00 81 1027.3
20240613134017 49 165 0.0 0.0 0.00 0.00 0.00 83 1027.4
20240613131016 44 177 0.0 0.0 0.00 0.00 0.00 95 1027.6